Tracking 30303 objects as of 20-Apr-2025
HD Live streaming from Space Station
objects crossing your sky now

JILIN-01 GAOFEN 3D 29

Track JILIN-01 GAOFEN 3D 29 now!
10-day predictions


NORAD ID: 52446
Int'l Code: 2022-048D
Perigee: 467.5 km
Apogee: 476.0 km
Inclination: 97.6 °
Period: 93.9 minutes
Semi major axis: 6842 km
RCS: Unknown
Launch date: May 5, 2022
Source: People's Republic of China (PRC)
Launch site: Taiyaun Space Center, China (TSC)
Your satellite tracking list
Your tracking list is empty




NASA's NSSDC Master Catalog

Two Line Element Set (TLE):
1 52446U 22048D   25109.95148907  .00027876  00000-0  85353-3 0  9994
2 52446  97.5707 198.8852 0006196 125.4216 234.7605 15.33768005163995
Source of the keplerian elements: AFSPC